Location: ??????
(36.0418°N, 43.6351°E)
Time: 05:19:05
(UTC+00:00)

Cosmos 883 Rocket - Pass Details

Date: 20 June 2021
Orbit: 950 x 996 km, 83.0° (Epoch: 27 July)

Event Time Altitude Azimuth Distance (km) Brightness Sun altitude
Rises 01:05:22 0° 344° (NNW) 3,635 7.8 -8.1°
Reaches altitude 10° 01:08:02 10° 337° (NNW) 2,683 7.0 -7.7°
Maximum altitude 01:13:36 38° 271° (W) 1,402 5.0 -6.8°
Drops below altitude 10° 01:19:10 10° 205° (SSW) 2,666 6.3 -5.9°
Sets 01:21:48 0° 197° (SSW) 3,610 7.0 -5.4°
